Location: Courcelles
(49.2596°N, 1.7419°E)
Time: 00:56:17
(UTC+00:00)

Cosmos 1862 - Pass Details

Date: 17 November 2025
Orbit: 473 x 486 km, 82.5° (Epoch: 04 December)

Event Time Altitude Azimuth Distance (km) Brightness Sun altitude
Rises 18:15:00 0° 348° (NNW) 2,543 6.8 -20.3°
Reaches altitude 10° 18:17:06 10° 346° (NNW) 1,661 5.9 -20.7°
Maximum altitude 18:20:43 71° 262° (W) 513 3.2 -21.3°
Drops below altitude 10° 18:24:19 10° 179° (S) 1,655 5.8 -21.9°
Sets 18:26:24 0° 177° (S) 2,532 6.7 -22.2°
